User: anonymous   Login
Location: Unspecified
(0.0000°N, 0.0000°E)
Time: 23:59:22
(UTC+00:00)
Language:

STARLINK-4533 - Orbit

View from above orbital plane
View from above orbital plane
View from above satellite
View from above satellite

Ground track
Ground track

The orbit is defined by the following mean orbital elements,

1 53406U          26145.34202763 +.00000000 +00000-0 +58541-4 0 00003
2 53406  53.2126 130.0159 0000977  80.0728 280.0374 15.08838503    01
Epoch (UTC): 25 May 2026 08:12:31
Eccentricity: 0.0000977
inclination: 53.2126°
perigee height: 539 km
apogee height: 540 km
right ascension of ascending node: 130.0159°
argument of perigee: 80.0728°
revolutions per day: 15.08838503
mean anomaly at epoch: 280.0374°

The dashed part of the orbit path shows where the satellite is in the earth's shadow,  

DLR